Location: Peterborough
(44.3091°N, 78.3197°W)
Time: 23:57:20
(UTC-04:00)

Vanguard 2 Rocket - Pass Details

Date: 23 March 2023
Orbit: 554 x 3314 km, 32.9° (Epoch: 02 June)

Event Time Altitude Azimuth Distance (km) Brightness Sun altitude
Exits shadow 04:19:20 18° 190° (S) 5,574 10.5 -29.7°
Drops below altitude 10° 04:25:10 10° 174° (S) 6,232 10.9 -28.8°
Sets 04:31:31 0° 162° (SSE) 7,098 11.3 -27.9°
